Weather at Arad International Airport

Public forecast

Using degrees Celsius for public forecast. Weather courtesy of forecast.io.

Current aviation weather report (METAR) for Arad International Airport

Retrieved 2020/10/29 13:30 UTC (0 seconds ago):

LRAR 291330Z 27004KT 8000 BKN007 OVC009 12/11 Q1018

Aviation forecast (TAF) for Arad International Airport

Forecast is more than 12 hours old.

Retrieved 2012/12/05 09:33 UTC (8 years ago):

TAF TAF LRAR 050800Z 0509/0521 VRB04KT 3000 -SN BR BKN005 OVC010 TEMPO 0509/0513 1500 SN BKN002 OVC005 BECMG 0513/0515 5000 -SN BKN010 OVC025